| time (UTC) | temp F | wind direction | speed MPH | gust MPH | rain 1hr in | rain 24hr in | rain mn in | humidity % | barometer mb |
| 20260902042050 | 65 | 268 | 0.0 | 5.0 | 0.00 | 0.00 | 0.00 | 59 | 1007.4 |
| 20260902041638 | 65 | 233 | 2.0 | 5.0 | 0.00 | 0.00 | 0.00 | 61 | 1007.2 |
| 20260902041021 | 66 | 244 | 1.0 | 3.0 | 0.00 | 0.00 | 0.00 | 61 | 1007.1 |
| 20260902040526 | 67 | 240 | 1.0 | 3.0 | 0.00 | 0.00 | 0.00 | 55 | 1007.2 |
| 20260902040217 | 68 | 304 | 1.0 | 2.0 | 0.00 | 0.00 | 0.00 | 55 | 1007.4 |
| 20260902035533 | 68 | 67 | 0.0 | 7.0 | 0.00 | 0.00 | 0.00 | 51 | 1007.5 |
| 20260902035051 | 69 | 118 | 1.0 | 10.0 | 0.00 | 0.00 | 0.00 | 46 | 1007.3 |
| 20260902034628 | 70 | 90 | 4.0 | 10.0 | 0.00 | 0.00 | 0.00 | 41 | 1007.2 |
| 20260902034025 | 69 | 287 | 1.0 | 5.0 | 0.00 | 0.00 | 0.00 | 40 | 1007.3 |
| 20260902033524 | 69 | 256 | 0.0 | 2.0 | 0.00 | 0.00 | 0.00 | 40 | 1006.7 |
| 20260902033141 | 69 | 266 | 0.0 | 1.0 | 0.00 | 0.00 | 0.00 | 41 | 1006.4 |
| 20260902032542 | 69 | 223 | 0.0 | 0.0 | 0.00 | 0.00 | 0.00 | 40 | 1006.2 |
| 20260902032032 | 69 | 228 | 0.0 | 1.0 | 0.00 | 0.00 | 0.00 | 40 | 1006.1 |
| 20260902031609 | 70 | 254 | 0.0 | 2.0 | 0.00 | 0.00 | 0.00 | 40 | 1006.0 |
| 20260902031029 | 70 | 325 | 0.0 | 2.0 | 0.00 | 0.00 | 0.00 | 41 | 1005.8 |
| 20260902030550 | 70 | 33 | 0.0 | 1.0 | 0.00 | 0.00 | 0.00 | 40 | 1005.8 |
| 20260902030145 | 71 | 235 | 0.0 | 1.0 | 0.00 | 0.00 | 0.00 | 39 | 1005.8 |
| 20260902025534 | 71 | 235 | 0.0 | 1.0 | 0.00 | 0.00 | 0.00 | 39 | 1005.7 |
| 20260902025038 | 71 | 246 | 0.0 | 1.0 | 0.00 | 0.00 | 0.00 | 39 | 1005.6 |
| 20260902024617 | 71 | 223 | 0.0 | 1.0 | 0.00 | 0.00 | 0.00 | 39 | 1005.7 |
| 20260902024025 | 72 | 169 | 0.0 | 1.0 | 0.00 | 0.00 | 0.00 | 39 | 1005.6 |
| 20260902023532 | 72 | 167 | 0.0 | 1.0 | 0.00 | 0.00 | 0.00 | 39 | 1005.4 |
| 20260902023124 | 72 | 167 | 0.0 | 1.0 | 0.00 | 0.00 | 0.00 | 39 | 1005.4 |
| 20260902022526 | 73 | 157 | 0.0 | 1.0 | 0.00 | 0.00 | 0.00 | 38 | 1005.4 |
| 20260902022027 | 73 | 157 | 0.0 | 1.0 | 0.00 | 0.00 | 0.00 | 37 | 1005.4 |
| 20260902021628 | 73 | 157 | 0.0 | 2.0 | 0.00 | 0.00 | 0.00 | 36 | 1005.3 |
| 20260902021035 | 74 | 143 | 0.0 | 3.0 | 0.00 | 0.00 | 0.00 | 36 | 1005.1 |
| 20260902020529 | 74 | 136 | 1.0 | 3.0 | 0.00 | 0.00 | 0.00 | 35 | 1005.1 |
| 20260902020135 | 75 | 147 | 0.0 | 3.0 | 0.00 | 0.00 | 0.00 | 34 | 1005.2 |
| 20260902015537 | 75 | 167 | 0.0 | 4.0 | 0.00 | 0.00 | 0.00 | 35 | 1005.2 |
| 20260902015041 | 76 | 92 | 0.0 | 4.0 | 0.00 | 0.00 | 0.00 | 34 | 1005.0 |
| 20260902014643 | 76 | 121 | 0.0 | 4.0 | 0.00 | 0.00 | 0.00 | 34 | 1005.0 |
| 20260902014041 | 76 | 136 | 2.0 | 4.0 | 0.00 | 0.00 | 0.00 | 33 | 1005.1 |
| 20260902013519 | 76 | 192 | 2.0 | 6.0 | 0.00 | 0.00 | 0.00 | 33 | 1005.1 |
| 20260902013133 | 77 | 161 | 2.0 | 6.0 | 0.00 | 0.00 | 0.00 | 32 | 1005.1 |
| 20260902012521 | 77 | 121 | 1.0 | 5.0 | 0.00 | 0.00 | 0.00 | 32 | 1005.3 |
| 20260902012037 | 77 | 130 | 1.0 | 5.0 | 0.00 | 0.00 | 0.00 | 32 | 1005.2 |
| 20260902011605 | 78 | 110 | 1.0 | 5.0 | 0.00 | 0.00 | 0.00 | 32 | 1005.2 |
| 20260902011024 | 78 | 309 | 0.0 | 5.0 | 0.00 | 0.00 | 0.00 | 31 | 1005.1 |
| 20260902010530 | 79 | 197 | 0.0 | 5.0 | 0.00 | 0.00 | 0.00 | 31 | 1005.2 |
| 20260902010121 | 79 | 240 | 0.0 | 6.0 | 0.00 | 0.00 | 0.00 | 30 | 1005.2 |
| 20260902005524 | 80 | 229 | 1.0 | 6.0 | 0.00 | 0.00 | 0.00 | 30 | 1005.2 |
| 20260902005025 | 80 | 347 | 0.0 | 3.0 | 0.00 | 0.00 | 0.00 | 30 | 1005.2 |
| 20260902004610 | 80 | 114 | 1.0 | 3.0 | 0.00 | 0.00 | 0.00 | 29 | 1005.1 |
| 20260902004038 | 81 | 333 | 0.0 | 7.0 | 0.00 | 0.00 | 0.00 | 29 | 1005.2 |
| 20260902003537 | 81 | 313 | 2.0 | 7.0 | 0.00 | 0.00 | 0.00 | 28 | 1005.3 |
| 20260902003147 | 81 | 261 | 1.0 | 8.0 | 0.00 | 0.00 | 0.00 | 28 | 1005.2 |
| 20260902002532 | 82 | 98 | 2.0 | 8.0 | 0.00 | 0.00 | 0.00 | 28 | 1005.4 |
| 20260902002037 | 82 | 159 | 1.0 | 5.0 | 0.00 | 0.00 | 0.00 | 28 | 1005.4 |
| 20260902001626 | 83 | 154 | 2.0 | 5.0 | 0.00 | 0.00 | 0.00 | 27 | 1005.4 |
| 20260902001037 | 83 | 190 | 1.0 | 5.0 | 0.00 | 0.00 | 0.00 | 27 | 1005.5 |
| 20260902000531 | 84 | 328 | 2.0 | 5.0 | 0.00 | 0.00 | 0.00 | 27 | 1005.5 |
| 20260902000201 | 83 | 87 | 1.0 | 5.0 | 0.00 | 0.00 | 0.00 | 27 | 1005.5 |
| 20260901235542 | 83 | 230 | 2.0 | 5.0 | 0.00 | 0.00 | 0.00 | 27 | 1005.5 |
| 20260901235021 | 83 | 180 | 0.0 | 8.0 | 0.00 | 0.00 | 0.00 | 27 | 1005.4 |
| 20260901234650 | 82 | 32 | 2.0 | 8.0 | 0.00 | 0.00 | 0.00 | 26 | 1005.6 |
| 20260901234032 | 82 | 213 | 1.0 | 7.0 | 0.00 | 0.00 | 0.00 | 28 | 1005.5 |
| 20260901233542 | 82 | 192 | 2.0 | 7.0 | 0.00 | 0.00 | 0.00 | 27 | 1005.6 |
| 20260901233126 | 82 | 71 | 1.0 | 7.0 | 0.00 | 0.00 | 0.00 | 27 | 1005.6 |
| 20260901232533 | 82 | 217 | 1.0 | 5.0 | 0.00 | 0.00 | 0.00 | 28 | 1005.6 |
| 20260901232030 | 83 | 117 | 3.0 | 6.0 | 0.00 | 0.00 | 0.00 | 26 | 1005.7 |
| 20260901231628 | 83 | 352 | 1.0 | 4.0 | 0.00 | 0.00 | 0.00 | 26 | 1005.8 |
| 20260901231032 | 83 | 259 | 0.0 | 5.0 | 0.00 | 0.00 | 0.00 | 27 | 1005.8 |
| 20260901230541 | 83 | 46 | 1.0 | 5.0 | 0.00 | 0.00 | 0.00 | 26 | 1005.8 |
| 20260901230157 | 83 | 44 | 1.0 | 5.0 | 0.00 | 0.00 | 0.00 | 26 | 1005.8 |
| 20260901225525 | 82 | 99 | 1.0 | 4.0 | 0.00 | 0.00 | 0.00 | 27 | 1005.9 |
| 20260901225037 | 82 | 360 | 0.0 | 5.0 | 0.00 | 0.00 | 0.00 | 27 | 1005.7 |
| 20260901224656 | 81 | 62 | 1.0 | 5.0 | 0.00 | 0.00 | 0.00 | 26 | 1005.9 |
| 20260901224037 | 81 | 188 | 0.0 | 5.0 | 0.00 | 0.00 | 0.00 | 27 | 1005.8 |
| 20260901223533 | 82 | 54 | 1.0 | 5.0 | 0.00 | 0.00 | 0.00 | 26 | 1005.8 |
| 20260901223153 | 82 | 319 | 0.0 | 3.0 | 0.00 | 0.00 | 0.00 | 26 | 1005.8 |
| 20260901222527 | 82 | 174 | 0.0 | 7.0 | 0.00 | 0.00 | 0.00 | 26 | 1005.8 |
| 20260901222042 | 82 | 207 | 1.0 | 5.0 | 0.00 | 0.00 | 0.00 | 26 | 1005.8 |
| 20260901221624 | 82 | 28 | 0.0 | 5.0 | 0.00 | 0.00 | 0.00 | 26 | 1005.7 |
| 20260901221025 | 82 | 360 | 0.0 | 4.0 | 0.00 | 0.00 | 0.00 | 25 | 1005.8 |
| 20260901220524 | 83 | 311 | 1.0 | 4.0 | 0.00 | 0.00 | 0.00 | 25 | 1005.7 |
| 20260901220155 | 83 | 335 | 0.0 | 4.0 | 0.00 | 0.00 | 0.00 | 25 | 1005.8 |
| 20260901215524 | 83 | 15 | 0.0 | 6.0 | 0.00 | 0.00 | 0.00 | 25 | 1005.9 |
| 20260901215035 | 83 | 40 | 2.0 | 6.0 | 0.00 | 0.00 | 0.00 | 25 | 1005.8 |
| 20260901214619 | 84 | 24 | 1.0 | 5.0 | 0.00 | 0.00 | 0.00 | 25 | 1005.8 |
| 20260901214033 | 83 | 352 | 1.0 | 5.0 | 0.00 | 0.00 | 0.00 | 25 | 1005.8 |
| 20260901213525 | 83 | 155 | 1.0 | 4.0 | 0.00 | 0.00 | 0.00 | 25 | 1005.8 |
| 20260901213140 | 83 | 57 | 1.0 | 4.0 | 0.00 | 0.00 | 0.00 | 24 | 1006.0 |
| 20260901212533 | 83 | 336 | 1.0 | 4.0 | 0.00 | 0.00 | 0.00 | 24 | 1006.0 |
| 20260901212025 | 84 | 306 | 1.0 | 6.0 | 0.00 | 0.00 | 0.00 | 24 | 1006.1 |
| 20260901211621 | 84 | 287 | 1.0 | 6.0 | 0.00 | 0.00 | 0.00 | 24 | 1006.3 |
| 20260901211033 | 84 | 130 | 1.0 | 8.0 | 0.00 | 0.00 | 0.00 | 24 | 1006.5 |
| 20260901210543 | 85 | 238 | 2.0 | 8.0 | 0.00 | 0.00 | 0.00 | 23 | 1006.4 |
| 20260901210219 | 85 | 140 | 1.0 | 5.0 | 0.00 | 0.00 | 0.00 | 24 | 1006.4 |
| 20260901205536 | 84 | 27 | 1.0 | 6.0 | 0.00 | 0.00 | 0.00 | 25 | 1006.5 |
| 20260901205035 | 84 | 137 | 2.0 | 5.0 | 0.00 | 0.00 | 0.00 | 25 | 1006.6 |
| 20260901204634 | 84 | 159 | 1.0 | 5.0 | 0.00 | 0.00 | 0.00 | 26 | 1006.6 |
| 20260901204043 | 83 | 85 | 1.0 | 3.0 | 0.00 | 0.00 | 0.00 | 26 | 1006.6 |
| 20260901203538 | 83 | 74 | 1.0 | 4.0 | 0.00 | 0.00 | 0.00 | 26 | 1006.6 |
| 20260901203209 | 83 | 38 | 2.0 | 4.0 | 0.00 | 0.00 | 0.00 | 26 | 1006.6 |
| 20260901202545 | 83 | 107 | 1.0 | 6.0 | 0.00 | 0.00 | 0.00 | 27 | 1006.8 |
| 20260901202043 | 82 | 218 | 1.0 | 6.0 | 0.00 | 0.00 | 0.00 | 26 | 1006.9 |
| 20260901201636 | 82 | 328 | 1.0 | 4.0 | 0.00 | 0.00 | 0.00 | 27 | 1006.9 |
| 20260901201026 | 83 | 92 | 1.0 | 3.0 | 0.00 | 0.00 | 0.00 | 27 | 1006.9 |
| 20260901200526 | 82 | 55 | 1.0 | 5.0 | 0.00 | 0.00 | 0.00 | 29 | 1007.1 |
| 20260901200229 | 82 | 57 | 1.0 | 5.0 | 0.00 | 0.00 | 0.00 | 28 | 1007.1 |
| 20260901195537 | 82 | 189 | 1.0 | 5.0 | 0.00 | 0.00 | 0.00 | 29 | 1007.0 |
| 20260901195034 | 81 | 107 | 0.0 | 7.0 | 0.00 | 0.00 | 0.00 | 29 | 1007.1 |
| 20260901194633 | 81 | 241 | 2.0 | 7.0 | 0.00 | 0.00 | 0.00 | 29 | 1007.1 |
| 20260901194029 | 81 | 340 | 2.0 | 6.0 | 0.00 | 0.00 | 0.00 | 28 | 1007.2 |
| 20260901193538 | 81 | 137 | 2.0 | 7.0 | 0.00 | 0.00 | 0.00 | 29 | 1007.3 |
| 20260901193126 | 80 | 107 | 2.0 | 8.0 | 0.00 | 0.00 | 0.00 | 28 | 1007.5 |
| 20260901192532 | 80 | 101 | 1.0 | 8.0 | 0.00 | 0.00 | 0.00 | 28 | 1007.5 |
| 20260901192034 | 81 | 155 | 2.0 | 6.0 | 0.00 | 0.00 | 0.00 | 28 | 1007.7 |
| 20260901191657 | 80 | 111 | 2.0 | 5.0 | 0.00 | 0.00 | 0.00 | 29 | 1007.8 |
| 20260901191037 | 80 | 176 | 2.0 | 4.0 | 0.00 | 0.00 | 0.00 | 30 | 1007.9 |
| 20260901190539 | 79 | 44 | 1.0 | 3.0 | 0.00 | 0.00 | 0.00 | 32 | 1008.0 |
| 20260901190234 | 78 | 24 | 0.0 | 4.0 | 0.00 | 0.00 | 0.00 | 34 | 1008.1 |
| 20260901185526 | 78 | 22 | 2.0 | 4.0 | 0.00 | 0.00 | 0.00 | 34 | 1008.1 |
| 20260901185025 | 77 | 51 | 1.0 | 3.0 | 0.00 | 0.00 | 0.00 | 36 | 1008.0 |
| 20260901184718 | 76 | 12 | 1.0 | 3.0 | 0.00 | 0.00 | 0.00 | 36 | 1008.1 |
| 20260901184041 | 76 | 69 | 1.0 | 3.0 | 0.00 | 0.00 | 0.00 | 37 | 1008.2 |
| 20260901183544 | 75 | 81 | 0.0 | 3.0 | 0.00 | 0.00 | 0.00 | 36 | 1008.2 |
| 20260901183227 | 75 | 109 | 0.0 | 3.0 | 0.00 | 0.00 | 0.00 | 36 | 1008.2 |
| 20260901182524 | 74 | 153 | 0.0 | 2.0 | 0.00 | 0.00 | 0.00 | 37 | 1008.3 |
| 20260901182033 | 74 | 107 | 1.0 | 4.0 | 0.00 | 0.00 | 0.00 | 37 | 1008.5 |
| 20260901181646 | 74 | 21 | 2.0 | 4.0 | 0.00 | 0.00 | 0.00 | 41 | 1008.6 |
| 20260901181050 | 73 | 5 | 1.0 | 3.0 | 0.00 | 0.00 | 0.00 | 41 | 1008.4 |
| 20260901180532 | 72 | 76 | 0.0 | 2.0 | 0.00 | 0.00 | 0.00 | 42 | 1008.6 |
| 20260901180227 | 72 | 53 | 0.0 | 3.0 | 0.00 | 0.00 | 0.00 | 44 | 1008.6 |
| 20260901175540 | 71 | 173 | 1.0 | 3.0 | 0.00 | 0.00 | 0.00 | 44 | 1008.7 |
| 20260901175030 | 70 | 120 | 0.0 | 2.0 | 0.00 | 0.00 | 0.00 | 46 | 1008.9 |
| 20260901174649 | 70 | 42 | 0.0 | 0.0 | 0.00 | 0.00 | 0.00 | 45 | 1009.0 |
| 20260901174039 | 71 | 43 | 0.0 | 0.0 | 0.00 | 0.00 | 0.00 | 46 | 1009.1 |
| 20260901173533 | 71 | 43 | 0.0 | 2.0 | 0.00 | 0.00 | 0.00 | 44 | 1009.2 |
| 20260901173217 | 70 | 161 | 0.0 | 3.0 | 0.00 | 0.00 | 0.00 | 45 | 1009.1 |
| 20260901172519 | 70 | 155 | 0.0 | 3.0 | 0.00 | 0.00 | 0.00 | 45 | 1009.0 |
| 20260901172045 | 69 | 139 | 1.0 | 2.0 | 0.00 | 0.00 | 0.00 | 44 | 1009.2 |
| 20260901171654 | 69 | 117 | 0.0 | 3.0 | 0.00 | 0.00 | 0.00 | 44 | 1009.2 |
| 20260901171023 | 68 | 171 | 0.0 | 3.0 | 0.00 | 0.00 | 0.00 | 45 | 1009.2 |
| 20260901170536 | 67 | 172 | 0.0 | 4.0 | 0.00 | 0.00 | 0.00 | 48 | 1009.5 |
| 20260901170202 | 67 | 174 | 1.0 | 5.0 | 0.00 | 0.00 | 0.00 | 48 | 1009.4 |
| 20260901165525 | 67 | 35 | 0.0 | 0.0 | 0.00 | 0.00 | 0.00 | 49 | 1009.4 |
| 20260901165031 | 66 | 128 | 0.0 | 0.0 | 0.00 | 0.00 | 0.00 | 50 | 1009.6 |
| 20260901164638 | 65 | 32 | 0.0 | 0.0 | 0.00 | 0.00 | 0.00 | 52 | 1009.7 |
| 20260901164025 | 64 | 32 | 0.0 | 0.0 | 0.00 | 0.00 | 0.00 | 50 | 1009.7 |
| 20260901163537 | 64 | 32 | 0.0 | 0.0 | 0.00 | 0.00 | 0.00 | 52 | 1009.8 |
| 20260901163134 | 63 | 37 | 0.0 | 0.0 | 0.00 | 0.00 | 0.00 | 53 | 1009.7 |
| 20260901162544 | 63 | 51 | 0.0 | 0.0 | 0.00 | 0.00 | 0.00 | 55 | 1009.7 |
| 20260901162028 | 62 | 344 | 0.0 | 2.0 | 0.00 | 0.00 | 0.00 | 56 | 1009.7 |
| 20260901161632 | 62 | 343 | 0.0 | 2.0 | 0.00 | 0.00 | 0.00 | 54 | 1009.8 |
| 20260901161031 | 61 | 71 | 0.0 | 0.0 | 0.00 | 0.00 | 0.00 | 56 | 1009.8 |
| 20260901160532 | 61 | 16 | 0.0 | 0.0 | 0.00 | 0.00 | 0.00 | 56 | 1009.8 |
| 20260901160129 | 60 | 337 | 0.0 | 0.0 | 0.00 | 0.00 | 0.00 | 57 | 1009.9 |
| 20260901155532 | 60 | 329 | 0.0 | 0.0 | 0.00 | 0.00 | 0.00 | 57 | 1010.0 |
| 20260901155033 | 59 | 329 | 0.0 | 0.0 | 0.00 | 0.00 | 0.00 | 57 | 1010.1 |
| 20260901154632 | 59 | 327 | 0.0 | 0.0 | 0.00 | 0.00 | 0.00 | 60 | 1010.1 |
| 20260901154049 | 58 | 329 | 0.0 | 2.0 | 0.00 | 0.00 | 0.00 | 61 | 1010.1 |
| 20260901153530 | 58 | 321 | 1.0 | 2.0 | 0.00 | 0.00 | 0.00 | 63 | 1010.0 |
| 20260901153129 | 57 | 276 | 0.0 | 0.0 | 0.00 | 0.00 | 0.00 | 63 | 1009.9 |
| 20260901152536 | 56 | 276 | 0.0 | 0.0 | 0.00 | 0.00 | 0.00 | 64 | 1010.0 |
| 20260901152028 | 56 | 276 | 0.0 | 0.0 | 0.00 | 0.00 | 0.00 | 68 | 1010.0 |
| 20260901151625 | 56 | 276 | 0.0 | 0.0 | 0.00 | 0.00 | 0.00 | 68 | 1010.2 |
| 20260901151037 | 56 | 276 | 0.0 | 0.0 | 0.00 | 0.00 | 0.00 | 68 | 1010.3 |
| 20260901150620 | 56 | 275 | 0.0 | 0.0 | 0.00 | 0.00 | 0.00 | 68 | 1010.4 |
| 20260901150141 | 56 | 275 | 0.0 | 0.0 | 0.00 | 0.00 | 0.00 | 68 | 1010.3 |
| 20260901145537 | 56 | 275 | 0.0 | 0.0 | 0.00 | 0.00 | 0.00 | 67 | 1010.3 |
| 20260901145039 | 55 | 275 | 0.0 | 0.0 | 0.00 | 0.00 | 0.00 | 67 | 1010.3 |
| 20260901144630 | 55 | 275 | 0.0 | 0.0 | 0.00 | 0.00 | 0.00 | 65 | 1010.4 |
| 20260901144031 | 55 | 275 | 0.0 | 0.0 | 0.00 | 0.00 | 0.00 | 64 | 1010.4 |
| 20260901143621 | 55 | 275 | 0.0 | 0.0 | 0.00 | 0.00 | 0.00 | 65 | 1010.4 |
| 20260901143209 | 55 | 275 | 0.0 | 0.0 | 0.00 | 0.00 | 0.00 | 66 | 1010.3 |
| 20260901142524 | 54 | 275 | 0.0 | 0.0 | 0.00 | 0.00 | 0.00 | 66 | 1010.3 |
| 20260901142026 | 54 | 275 | 0.0 | 0.0 | 0.00 | 0.00 | 0.00 | 68 | 1010.3 |
| 20260901141655 | 54 | 275 | 0.0 | 0.0 | 0.00 | 0.00 | 0.00 | 68 | 1010.3 |
| 20260901141025 | 53 | 275 | 0.0 | 0.0 | 0.00 | 0.00 | 0.00 | 68 | 1010.2 |
| 20260901140524 | 53 | 296 | 0.0 | 0.0 | 0.00 | 0.00 | 0.00 | 68 | 1010.2 |
| 20260901140159 | 53 | 296 | 0.0 | 0.0 | 0.00 | 0.00 | 0.00 | 67 | 1010.2 |
| 20260901135550 | 53 | 296 | 0.0 | 0.0 | 0.00 | 0.00 | 0.00 | 66 | 1010.3 |
| 20260901135036 | 53 | 296 | 0.0 | 2.0 | 0.00 | 0.00 | 0.00 | 66 | 1010.1 |
| 20260901134640 | 53 | 273 | 0.0 | 2.0 | 0.00 | 0.00 | 0.00 | 68 | 1009.9 |
| 20260901134041 | 53 | 263 | 0.0 | 2.0 | 0.00 | 0.00 | 0.00 | 68 | 1010.1 |
| 20260901133542 | 53 | 277 | 0.0 | 2.0 | 0.00 | 0.00 | 0.00 | 68 | 1010.1 |
| 20260901133127 | 53 | 265 | 0.0 | 3.0 | 0.00 | 0.00 | 0.00 | 67 | 1010.0 |
| 20260901132543 | 53 | 249 | 0.0 | 3.0 | 0.00 | 0.00 | 0.00 | 67 | 1010.0 |
| 20260901132042 | 53 | 262 | 1.0 | 4.0 | 0.00 | 0.00 | 0.00 | 67 | 1010.1 |
| 20260901131636 | 53 | 283 | 2.0 | 4.0 | 0.00 | 0.00 | 0.00 | 67 | 1010.2 |
| 20260901131023 | 53 | 277 | 1.0 | 3.0 | 0.00 | 0.00 | 0.00 | 67 | 1010.2 |
| 20260901130546 | 52 | 276 | 1.0 | 4.0 | 0.00 | 0.00 | 0.00 | 67 | 1010.2 |
| 20260901130142 | 53 | 283 | 1.0 | 4.0 | 0.00 | 0.00 | 0.00 | 67 | 1010.2 |
| 20260901125546 | 53 | 294 | 1.0 | 2.0 | 0.00 | 0.00 | 0.00 | 66 | 1010.2 |
| 20260901125033 | 53 | 279 | 1.0 | 3.0 | 0.00 | 0.00 | 0.00 | 66 | 1010.2 |
| 20260901124644 | 53 | 257 | 1.0 | 4.0 | 0.00 | 0.00 | 0.00 | 66 | 1010.3 |
| 20260901124044 | 53 | 265 | 1.0 | 3.0 | 0.00 | 0.00 | 0.00 | 66 | 1010.3 |
| 20260901123530 | 53 | 280 | 1.0 | 4.0 | 0.00 | 0.00 | 0.00 | 66 | 1010.3 |
| 20260901123218 | 54 | 263 | 1.0 | 4.0 | 0.00 | 0.00 | 0.00 | 66 | 1010.4 |
| 20260901122529 | 53 | 257 | 1.0 | 3.0 | 0.00 | 0.00 | 0.00 | 66 | 1010.5 |
| 20260901122037 | 53 | 256 | 2.0 | 4.0 | 0.00 | 0.00 | 0.00 | 66 | 1010.6 |
| 20260901121651 | 53 | 249 | 2.0 | 4.0 | 0.00 | 0.00 | 0.00 | 66 | 1010.6 |
| 20260901121047 | 53 | 248 | 2.0 | 4.0 | 0.00 | 0.00 | 0.00 | 66 | 1010.8 |
| 20260901120524 | 53 | 246 | 0.0 | 0.0 | 0.00 | 0.00 | 0.00 | 66 | 1010.8 |
| 20260901120156 | 53 | 267 | 0.0 | 0.0 | 0.00 | 0.00 | 0.00 | 66 | 1010.8 |
| 20260901115540 | 53 | 270 | 0.0 | 2.0 | 0.00 | 0.00 | 0.00 | 65 | 1010.8 |
| 20260901115031 | 53 | 274 | 0.0 | 3.0 | 0.00 | 0.00 | 0.00 | 65 | 1010.9 |
| 20260901114626 | 53 | 286 | 0.0 | 3.0 | 0.00 | 0.00 | 0.00 | 65 | 1010.9 |
| 20260901114028 | 53 | 278 | 0.0 | 1.0 | 0.00 | 0.00 | 0.00 | 65 | 1010.8 |
| 20260901113526 | 54 | 275 | 0.0 | 2.0 | 0.00 | 0.00 | 0.00 | 65 | 1010.8 |
| 20260901113129 | 54 | 255 | 0.0 | 3.0 | 0.00 | 0.00 | 0.00 | 65 | 1010.9 |
| 20260901112525 | 54 | 252 | 1.0 | 3.0 | 0.00 | 0.00 | 0.00 | 65 | 1010.9 |
| 20260901112037 | 54 | 244 | 1.0 | 3.0 | 0.00 | 0.00 | 0.00 | 65 | 1010.9 |
| 20260901111639 | 54 | 244 | 2.0 | 4.0 | 0.00 | 0.00 | 0.00 | 64 | 1011.0 |
| 20260901111028 | 54 | 241 | 1.0 | 3.0 | 0.00 | 0.00 | 0.00 | 64 | 1011.0 |
| 20260901110533 | 54 | 236 | 1.0 | 2.0 | 0.00 | 0.00 | 0.00 | 64 | 1010.9 |
| 20260901110202 | 54 | 250 | 1.0 | 2.0 | 0.00 | 0.00 | 0.00 | 64 | 1011.1 |
| 20260901105600 | 54 | 273 | 0.0 | 2.0 | 0.00 | 0.00 | 0.00 | 64 | 1011.0 |
| 20260901105028 | 55 | 273 | 1.0 | 2.0 | 0.00 | 0.00 | 0.00 | 64 | 1011.0 |
| 20260901104700 | 55 | 278 | 0.0 | 1.0 | 0.00 | 0.00 | 0.00 | 63 | 1011.0 |
| 20260901104049 | 55 | 277 | 0.0 | 2.0 | 0.00 | 0.00 | 0.00 | 62 | 1011.0 |
| 20260901103531 | 55 | 252 | 1.0 | 3.0 | 0.00 | 0.00 | 0.00 | 62 | 1011.0 |
| 20260901103134 | 55 | 246 | 1.0 | 3.0 | 0.00 | 0.00 | 0.00 | 63 | 1011.0 |
| 20260901102551 | 55 | 267 | 0.0 | 3.0 | 0.00 | 0.00 | 0.00 | 62 | 1010.9 |
| 20260901102032 | 55 | 283 | 2.0 | 4.0 | 0.00 | 0.00 | 0.00 | 63 | 1010.9 |
| 20260901101643 | 55 | 262 | 1.0 | 4.0 | 0.00 | 0.00 | 0.00 | 63 | 1010.9 |
| 20260901101028 | 55 | 246 | 1.0 | 4.0 | 0.00 | 0.00 | 0.00 | 63 | 1010.9 |
| 20260901100533 | 55 | 236 | 2.0 | 4.0 | 0.00 | 0.00 | 0.00 | 63 | 1010.9 |
| 20260901100158 | 55 | 267 | 1.0 | 3.0 | 0.00 | 0.00 | 0.00 | 63 | 1011.0 |
| 20260901095545 | 55 | 249 | 2.0 | 4.0 | 0.00 | 0.00 | 0.00 | 62 | 1010.8 |
| 20260901095024 | 55 | 246 | 2.0 | 4.0 | 0.00 | 0.00 | 0.00 | 63 | 1010.9 |
| 20260901094718 | 55 | 248 | 1.0 | 3.0 | 0.00 | 0.00 | 0.00 | 62 | 1010.9 |
| 20260901094050 | 55 | 273 | 1.0 | 3.0 | 0.00 | 0.00 | 0.00 | 62 | 1010.9 |
| 20260901093536 | 55 | 261 | 0.0 | 0.0 | 0.00 | 0.00 | 0.00 | 62 | 1010.9 |
| 20260901093203 | 55 | 251 | 0.0 | 0.0 | 0.00 | 0.00 | 0.00 | 61 | 1010.9 |
| 20260901092542 | 55 | 240 | 0.0 | 0.0 | 0.00 | 0.00 | 0.00 | 62 | 1011.0 |
| 20260901092046 | 55 | 244 | 0.0 | 3.0 | 0.00 | 0.00 | 0.00 | 62 | 1011.0 |
| 20260901091628 | 55 | 253 | 0.0 | 3.0 | 0.00 | 0.00 | 0.00 | 63 | 1011.0 |
| 20260901091044 | 56 | 258 | 1.0 | 3.0 | 0.00 | 0.00 | 0.00 | 62 | 1010.9 |
| 20260901090541 | 56 | 263 | 2.0 | 3.0 | 0.00 | 0.00 | 0.00 | 61 | 1010.9 |
| 20260901090146 | 56 | 242 | 1.0 | 3.0 | 0.00 | 0.00 | 0.00 | 61 | 1010.9 |
| 20260901085541 | 56 | 247 | 1.0 | 3.0 | 0.00 | 0.00 | 0.00 | 61 | 1010.9 |
| 20260901085046 | 56 | 262 | 2.0 | 3.0 | 0.00 | 0.00 | 0.00 | 61 | 1011.0 |
| 20260901084641 | 56 | 269 | 0.0 | 3.0 | 0.00 | 0.00 | 0.00 | 61 | 1011.0 |
| 20260901084025 | 56 | 261 | 1.0 | 3.0 | 0.00 | 0.00 | 0.00 | 61 | 1010.9 |
| 20260901083545 | 56 | 252 | 1.0 | 3.0 | 0.00 | 0.00 | 0.00 | 60 | 1010.9 |
| 20260901083130 | 57 | 253 | 1.0 | 2.0 | 0.00 | 0.00 | 0.00 | 60 | 1011.0 |
| 20260901082535 | 57 | 254 | 0.0 | 2.0 | 0.00 | 0.00 | 0.00 | 59 | 1011.0 |
| 20260901082026 | 57 | 227 | 1.0 | 3.0 | 0.00 | 0.00 | 0.00 | 58 | 1011.0 |
| 20260901081631 | 57 | 237 | 2.0 | 3.0 | 0.00 | 0.00 | 0.00 | 59 | 1011.1 |
| 20260901081036 | 57 | 230 | 1.0 | 3.0 | 0.00 | 0.00 | 0.00 | 59 | 1011.1 |
| 20260901080541 | 58 | 257 | 1.0 | 3.0 | 0.00 | 0.00 | 0.00 | 59 | 1011.1 |
| 20260901080130 | 58 | 246 | 1.0 | 3.0 | 0.00 | 0.00 | 0.00 | 58 | 1011.0 |
| 20260901075525 | 58 | 246 | 1.0 | 3.0 | 0.00 | 0.00 | 0.00 | 58 | 1011.1 |
| 20260901075117 | 58 | 235 | 2.0 | 3.0 | 0.00 | 0.00 | 0.00 | 59 | 1011.1 |
| 20260901074641 | 57 | 252 | 2.0 | 3.0 | 0.00 | 0.00 | 0.00 | 59 | 1011.0 |
| 20260901074042 | 58 | 269 | 1.0 | 3.0 | 0.00 | 0.00 | 0.00 | 58 | 1011.0 |
| 20260901073546 | 58 | 251 | 1.0 | 3.0 | 0.00 | 0.00 | 0.00 | 58 | 1010.9 |
| 20260901073147 | 58 | 252 | 1.0 | 3.0 | 0.00 | 0.00 | 0.00 | 57 | 1010.8 |
| 20260901072528 | 58 | 234 | 2.0 | 4.0 | 0.00 | 0.00 | 0.00 | 58 | 1010.9 |
| 20260901072037 | 58 | 260 | 2.0 | 4.0 | 0.00 | 0.00 | 0.00 | 59 | 1010.8 |
| 20260901071657 | 58 | 248 | 2.0 | 3.0 | 0.00 | 0.00 | 0.00 | 58 | 1010.8 |
| 20260901071027 | 58 | 277 | 1.0 | 4.0 | 0.00 | 0.00 | 0.00 | 57 | 1010.9 |
| 20260901070738 | 58 | 255 | 2.0 | 4.0 | 0.00 | 0.00 | 0.00 | 57 | 1010.9 |
| 20260901070218 | 58 | 248 | 1.0 | 4.0 | 0.00 | 0.00 | 0.00 | 57 | 1011.0 |
| 20260901065533 | 58 | 235 | 2.0 | 4.0 | 0.00 | 0.00 | 0.00 | 57 | 1011.0 |
| 20260901065032 | 58 | 245 | 2.0 | 3.0 | 0.00 | 0.00 | 0.00 | 57 | 1011.1 |
| 20260901064717 | 59 | 271 | 0.0 | 4.0 | 0.00 | 0.00 | 0.00 | 56 | 1011.2 |
| 20260901064042 | 59 | 286 | 1.0 | 4.0 | 0.00 | 0.00 | 0.00 | 57 | 1011.2 |
| 20260901063532 | 59 | 264 | 2.0 | 4.0 | 0.00 | 0.00 | 0.00 | 57 | 1011.2 |
| 20260901063202 | 59 | 248 | 2.0 | 3.0 | 0.00 | 0.00 | 0.00 | 57 | 1011.2 |
| 20260901062532 | 59 | 259 | 2.0 | 3.0 | 0.00 | 0.00 | 0.00 | 57 | 1011.3 |
| 20260901062026 | 59 | 292 | 1.0 | 3.0 | 0.00 | 0.00 | 0.00 | 56 | 1011.3 |
| 20260901061634 | 59 | 271 | 1.0 | 4.0 | 0.00 | 0.00 | 0.00 | 56 | 1011.4 |
| 20260901061025 | 59 | 265 | 1.0 | 4.0 | 0.00 | 0.00 | 0.00 | 56 | 1011.3 |
| 20260901060525 | 59 | 280 | 1.0 | 4.0 | 0.00 | 0.00 | 0.00 | 56 | 1011.4 |
| 20260901060144 | 59 | 246 | 0.0 | 4.0 | 0.00 | 0.00 | 0.00 | 55 | 1011.5 |
| 20260901055525 | 60 | 278 | 1.0 | 4.0 | 0.00 | 0.00 | 0.00 | 55 | 1011.5 |
| 20260901055024 | 60 | 275 | 1.0 | 3.0 | 0.00 | 0.00 | 0.00 | 54 | 1011.4 |
| 20260901054726 | 60 | 246 | 2.0 | 3.0 | 0.00 | 0.00 | 0.00 | 54 | 1011.5 |
| 20260901054033 | 60 | 251 | 2.0 | 4.0 | 0.00 | 0.00 | 0.00 | 54 | 1011.5 |
| 20260901053533 | 60 | 277 | 1.0 | 4.0 | 0.00 | 0.00 | 0.00 | 54 | 1011.5 |
| 20260901053242 | 61 | 264 | 1.0 | 4.0 | 0.00 | 0.00 | 0.00 | 53 | 1011.5 |
| 20260901052540 | 61 | 257 | 2.0 | 4.0 | 0.00 | 0.00 | 0.00 | 52 | 1011.6 |
| 20260901052043 | 61 | 242 | 2.0 | 3.0 | 0.00 | 0.00 | 0.00 | 53 | 1011.7 |
| 20260901051613 | 61 | 248 | 0.0 | 4.0 | 0.00 | 0.00 | 0.00 | 52 | 1011.5 |
| 20260901051021 | 61 | 246 | 2.0 | 4.0 | 0.00 | 0.00 | 0.00 | 52 | 1011.6 |
| 20260901050524 | 62 | 258 | 1.0 | 4.0 | 0.00 | 0.00 | 0.00 | 52 | 1011.6 |
| 20260901050159 | 62 | 285 | 0.0 | 5.0 | 0.00 | 0.00 | 0.00 | 51 | 1011.7 |
| 20260901045536 | 62 | 259 | 1.0 | 5.0 | 0.00 | 0.00 | 0.00 | 51 | 1011.8 |
| 20260901045017 | 62 | 231 | 2.0 | 4.0 | 0.00 | 0.00 | 0.00 | 51 | 1011.7 |
| 20260901044703 | 62 | 244 | 2.0 | 4.0 | 0.00 | 0.00 | 0.00 | 51 | 1011.5 |
| 20260901044025 | 62 | 244 | 2.0 | 4.0 | 0.00 | 0.00 | 0.00 | 50 | 1011.6 |
| 20260901043528 | 63 | 236 | 2.0 | 4.0 | 0.00 | 0.00 | 0.00 | 50 | 1011.7 |
| 20260901043224 | 63 | 246 | 2.0 | 7.0 | 0.00 | 0.00 | 0.00 | 49 | 1011.7 |
| 20260901042534 | 63 | 244 | 3.0 | 7.0 | 0.00 | 0.00 | 0.00 | 49 | 1011.7 |